Date String (YYYY-MM-DD hh:mm:ss) UTC,Instrument flags,Ambient pressure (hPa),Sample flow (lpm),Bypass flow (lpm),Sample temperature (°C),Ambient temperature (°C),ASC tube jacket temperature (°C),LED temperature (°C),Box temperature (°C),Sample RH (%),Span deviation,Mass concentration (μg/m³),Mass concentration (μg/m³),Mass concentration (μg/m³)
DateTimeUTC,F1_M11,P_M11,Q1_M11,Q2_M11,T1_M11,T2_M11,T3_M11,T4_M11,T5_M11,U1_M11,ZSPAN_M11,X2_M11,X0_M11,X1_M11
2022-08-01 16:00:00,,0829.6,5.00,0.00,29.6,28.0,00.0,38.4,31.5,27.8,0000.0,0006.91,0010.35,0006.50
2022-08-01 16:01:00,,0829.5,5.00,0.00,29.6,28.2,00.0,38.4,31.5,28.2,0000.0,0006.87,0010.23,0006.48
2022-08-01 16:02:00,,0829.5,5.00,0.00,29.6,28.3,00.0,38.4,31.6,27.6,0000.0,0006.84,0010.16,0006.47
2022-08-01 16:03:00,,0829.5,5.00,0.00,29.7,28.4,00.0,38.4,31.6,27.3,0000.0,0006.81,0009.96,0006.46
2022-08-01 16:04:00,,0829.6,5.01,0.00,29.7,28.6,00.0,38.5,31.7,27.5,0000.0,0006.83,0010.29,0006.47
2022-08-01 16:05:00,,0829.6,5.00,0.00,29.7,28.7,00.0,38.5,31.7,27.0,0000.0,0006.86,0010.65,0006.50
2022-08-01 16:06:00,,0829.5,5.00,0.00,29.8,28.5,00.0,38.5,31.7,28.4,0000.0,0006.88,0010.70,0006.50
2022-08-01 16:07:00,,0829.5,4.99,0.00,29.7,27.8,00.0,38.4,31.5,29.1,0000.0,0006.87,0010.65,0006.52
2022-08-01 16:08:00,,0829.5,5.01,0.00,29.7,27.4,00.0,38.4,31.4,28.5,0000.0,0006.88,0011.13,0006.55
2022-08-01 16:09:00,,0829.5,4.99,0.00,29.6,27.4,00.0,38.4,31.3,28.8,0000.0,0006.89,0011.87,0006.56
2022-08-01 16:10:00,,0829.5,4.99,0.00,29.6,27.5,00.0,38.4,31.4,29.0,0000.0,0006.88,0011.66,0006.56
2022-08-01 16:11:00,,0829.5,5.01,0.00,29.6,27.7,00.0,38.4,31.4,28.7,0000.0,0006.89,0011.62,0006.57
2022-08-01 16:12:00,,0829.5,5.00,0.00,29.6,27.9,00.0,38.4,31.4,29.0,0000.0,0006.92,0011.72,0006.58
2022-08-01 16:13:00,,0829.5,5.00,0.00,29.6,28.0,00.0,38.4,31.5,28.7,0000.0,0006.94,0011.63,0006.60
2022-08-01 16:14:00,,0829.5,5.01,0.00,29.6,28.2,00.0,38.4,31.5,28.0,0000.0,0006.96,0011.73,0006.61
2022-08-01 16:15:00,,0829.5,5.00,0.00,29.6,28.3,00.0,38.4,31.6,28.9,0000.0,0006.93,0011.30,0006.60
2022-08-01 16:16:00,,0829.5,5.01,0.00,29.7,28.5,00.0,38.4,31.6,28.9,0000.0,0006.90,0011.17,0006.61
2022-08-01 16:17:00,,0829.5,5.01,0.00,29.7,28.6,00.0,38.4,31.7,29.5,0000.0,0006.89,0011.50,0006.63
2022-08-01 16:18:00,,0829.5,5.00,0.00,29.7,28.2,00.0,38.4,31.6,28.5,0000.0,0006.88,0011.52,0006.59
2022-08-01 16:19:00,,0829.6,4.99,0.00,29.7,27.6,00.0,38.4,31.4,27.8,0000.0,0006.85,0011.19,0006.54
2022-08-01 16:20:00,,0829.5,5.01,0.00,29.6,27.4,00.0,38.4,31.4,28.9,0000.0,0006.79,0010.41,0006.50
2022-08-01 16:21:00,,0829.5,4.98,0.00,29.6,27.4,00.0,38.3,31.3,29.6,0000.0,0006.77,0010.26,0006.49
2022-08-01 16:22:00,,0829.5,5.01,0.00,29.5,27.6,00.0,38.3,31.3,30.3,0000.0,0006.80,0010.37,0006.48
2022-08-01 16:23:00,,0829.5,4.99,0.00,29.5,27.7,00.0,38.3,31.3,30.5,0000.0,0006.79,0010.51,0006.47
2022-08-01 16:24:00,,0829.5,4.99,0.00,29.5,27.9,00.0,38.3,31.4,30.4,0000.0,0006.81,0010.67,0006.45
2022-08-01 16:25:00,,0829.5,5.00,0.00,29.6,28.1,00.0,38.3,31.5,29.9,0000.0,0006.82,0010.51,0006.45
2022-08-01 16:26:00,,0829.5,5.00,0.00,29.6,28.2,00.0,38.4,31.5,30.1,0000.0,0006.85,0010.52,0006.47
2022-08-01 16:27:00,,0829.5,5.00,0.00,29.6,28.4,00.0,38.4,31.6,29.6,0001.9,0006.87,0011.11,0006.46
2022-08-01 16:28:00,,0829.5,5.00,0.00,29.6,28.5,00.0,38.4,31.6,29.4,0001.6,0006.85,0011.11,0006.43
2022-08-01 16:29:00,,0829.5,5.00,0.00,29.7,28.3,00.0,38.4,31.6,29.7,0000.0,0006.87,0011.20,0006.43
2022-08-01 16:30:00,,0829.5,5.00,0.00,29.6,27.7,00.0,38.3,31.4,29.6,0000.7,0006.87,0011.15,0006.45
2022-08-01 16:31:00,,0829.5,4.98,0.00,29.6,27.4,00.0,38.3,31.4,29.9,0002.6,0006.88,0011.24,0006.46
2022-08-01 16:32:00,,0829.5,5.01,0.00,29.6,27.5,00.0,38.3,31.3,28.8,0001.0,0006.88,0011.95,0006.45
2022-08-01 16:33:00,,0829.5,4.99,0.00,29.5,27.6,00.0,38.3,31.3,27.7,0000.0,0006.83,0011.92,0006.41
2022-08-01 16:34:00,,0829.5,5.00,0.00,29.5,27.7,00.0,38.3,31.3,28.1,0000.0,0006.77,0011.70,0006.36
2022-08-01 16:35:00,,0829.5,5.00,0.00,29.5,27.9,00.0,38.3,31.4,28.3,0000.0,0006.72,0011.95,0006.32
2022-08-01 16:36:00,,0829.5,5.00,0.00,29.5,28.1,00.0,38.3,31.4,28.4,0000.0,0006.66,0012.05,0006.27
2022-08-01 16:37:00,,0829.5,4.98,0.00,29.6,28.2,00.0,38.3,31.5,28.3,0000.0,0006.62,0012.05,0006.23
2022-08-01 16:38:00,,0829.5,5.00,0.00,29.6,28.4,00.0,38.3,31.6,28.3,0000.0,0006.55,0011.60,0006.17
2022-08-01 16:39:00,,0829.5,5.00,0.00,29.6,28.3,00.0,38.3,31.5,27.7,0000.0,0006.53,0010.78,0006.13
2022-08-01 16:40:00,,0829.5,5.01,0.00,29.6,27.7,00.0,38.3,31.4,28.2,0000.0,0006.51,0010.76,0006.09
2022-08-01 16:41:00,,0829.5,4.99,0.00,29.6,27.4,00.0,38.3,31.3,29.2,0000.0,0006.51,0011.08,0006.05
2022-08-01 16:42:00,,0829.5,5.01,0.00,29.5,27.4,00.0,38.3,31.3,29.1,0000.0,0006.53,0011.45,0006.03
2022-08-01 16:43:00,,0829.5,5.00,0.00,29.5,27.5,00.0,38.3,31.2,29.5,0000.0,0006.52,0011.01,0006.01
2022-08-01 16:44:00,,0829.5,5.01,0.00,29.5,27.7,00.0,38.3,31.3,29.4,0000.0,0006.56,0011.34,0006.01
2022-08-01 16:45:00,,0829.5,5.00,0.00,29.5,27.8,00.0,38.3,31.3,29.4,0000.0,0006.61,0011.76,0006.03
2022-08-01 16:46:00,,0829.5,5.00,0.00,29.5,28.0,00.0,38.3,31.4,29.4,0000.0,0006.60,0012.15,0006.05
2022-08-01 16:47:00,,0829.5,5.01,0.00,29.5,28.2,00.0,38.3,31.4,27.9,0000.0,0006.59,0012.11,0006.04
2022-08-01 16:48:00,,0829.5,5.00,0.00,29.6,28.3,00.0,38.3,31.5,28.0,0000.0,0006.61,0012.40,0006.04
2022-08-01 16:49:00,,0829.5,5.00,0.00,29.6,28.3,00.0,38.3,31.5,28.5,0000.0,0006.64,0012.82,0006.04
2022-08-01 16:50:00,,0829.5,4.99,0.00,29.6,27.7,00.0,38.3,31.4,29.2,0000.0,0006.64,0012.82,0006.04
2022-08-01 16:51:00,,0829.5,5.01,0.00,29.5,27.4,00.0,38.3,31.3,28.7,0000.0,0006.62,0012.79,0006.05
2022-08-01 16:52:00,,0829.5,5.00,0.00,29.5,27.3,00.0,38.2,31.3,28.4,0000.0,0006.58,0012.53,0006.03
2022-08-01 16:53:00,,0829.5,4.99,0.00,29.4,27.4,00.0,38.2,31.2,27.9,0000.0,0006.51,0012.23,0005.98
2022-08-01 16:54:00,,0829.5,5.01,0.00,29.4,27.6,00.0,38.2,31.2,28.7,0000.0,0006.44,0012.05,0005.93
2022-08-01 16:55:00,,0829.5,5.00,0.00,29.4,27.8,00.0,38.2,31.3,29.2,0000.0,0006.37,0011.66,0005.88
2022-08-01 16:56:00,,0829.5,5.00,0.00,29.5,28.0,00.0,38.2,31.3,28.2,0000.0,0006.31,0011.25,0005.85
2022-08-01 16:57:00,,0829.5,4.99,0.00,29.5,28.1,00.0,38.2,31.4,28.1,0000.0,0006.26,0011.81,0005.81
2022-08-01 16:58:00,,0829.5,5.00,0.00,29.5,28.3,00.0,38.3,31.4,27.9,0000.0,0006.26,0015.30,0005.77
2022-08-01 16:59:00,,0829.5,5.00,0.00,29.6,28.0,00.0,38.2,31.4,28.1,0000.0,0006.24,0015.69,0005.75
